UTTI current weather conditions

sailwx.info

Wind from 010 at 6 knots

Air temperature -0.0° C
Visibility: greater than 5.4 NM
Dewpoint -0.0° C

Last reported at 2014-Oct-20 23:20 UTC.
Time now 2014-Oct-21 00:47 UTC

Location: N 60°54' E 026°56'.
View on Google Maps.

See reports from other nearby stations

  
Tides and Currents Weather Stations Pressure Air Temp Water Temp Dewpoint Dewpoint Depression Visibility Wind Speed Wind Dir Waves Ship Positions
date/time (UTC)wind fromknots sea level pressurealtimeterstation pressurevisibilityair tempwater tempwave heightnotes
2014-Oct-20 23:20 010 6 5.4-0.0
2014-Oct-20 22:50 020 5 1.5-0.0 Light snow showers.
2014-Oct-20 22:20 020 4 5.4-0.0
2014-Oct-20 21:50 030 5 2.1-0.0 Light rain snow.
2014-Oct-20 21:20 030 4 1.2-0.0 Light rain snow.
2014-Oct-20 20:50 030 6 5.4-0.0 Light rain showers.
2014-Oct-20 20:20 030 7 5.4-0.0 Light snow showers.
2014-Oct-20 19:50 040 7 5.4-0.0
2014-Oct-20 19:20 030 7 5.4-0.0
2014-Oct-20 18:50 030 7 5.4 1.0
2014-Oct-20 18:20 050 8 5.4 1.0
2014-Oct-20 17:50 050 9 5.4 1.0
2014-Oct-20 17:20 050 8 5.4 1.0
2014-Oct-20 16:50 050 9 2.1 2.0 Light rain. Mist.
2014-Oct-20 16:20 040 8 2.0 2.0 Mist.
2014-Oct-20 15:50 050 9 2.7 2.0
2014-Oct-20 15:20 040 8 2.7 3.0
2014-Oct-20 14:50 050 7 2.7 3.0
2014-Oct-20 14:20 050 6 3.2 3.0
2014-Oct-20 13:50 050 6 2.7 3.0
2014-Oct-20 13:20 050 6 2.7 4.0
2014-Oct-20 12:50 040 6 2.7 4.0 Light drizzle.
2014-Oct-20 12:21 050 6 3.2 4.0 Light drizzle.
2014-Oct-20 11:50 050 6 2.2 4.0 Light drizzle. Mist.
2014-Oct-20 11:20 030 5 2.2 4.0 Light drizzle. Mist.
2014-Oct-20 10:50 030 4 2.2 4.0 Light drizzle. Mist.
2014-Oct-20 10:20 030 4 2.7 4.0 Light drizzle.
2014-Oct-20 09:51 070 3 1.1 4.0 Light drizzle. Mist.
2014-Oct-20 09:20 050 2 3.2 4.0 Light drizzle.
2014-Oct-20 08:50 070 3 2.7 5.0 Light drizzle.
2014-Oct-20 08:20 100 3 1.2 4.0 Light drizzle. Mist.
2014-Oct-20 07:50 100 2 0.8 4.0 Light drizzle. Mist.
2014-Oct-20 07:20 110 2 1.0 4.0 Light drizzle. Mist.
2014-Oct-20 06:50 100 2 0.8 4.0 Light drizzle. Mist.
2014-Oct-20 06:20 100 3 0.8 4.0 Light drizzle. Mist.
2014-Oct-20 05:50 070 3 0.3 4.0 Light drizzle. Fog.
2014-Oct-20 05:20 100 2 0.3 4.0 Light drizzle. Fog.
2014-Oct-20 04:50 100 3 0.4 4.0 Light drizzle. Fog.
2014-Oct-20 03:20 100 2 0.4 4.0 Light drizzle. Fog.
2014-Oct-20 02:50 100 2 0.8 4.0 Light drizzle. Mist.
2014-Oct-20 02:20 0.3 4.0 Fog.
2014-Oct-20 01:50 100 1 0.4 4.0 Light rain showers. Fog.
2014-Oct-20 01:20 140 2 0.5 4.0 Fog.
2014-Oct-20 00:50 120 1 0.5 4.0 Mist.
2014-Oct-20 00:20 0.3 4.0 Fog.
2014-Oct-19 23:50 100 3 0.3 4.0 Fog.
2014-Oct-19 23:20 080 4 0.2 4.0 Fog.
2014-Oct-19 22:50 100 2 0.1 4.0 Fog.
2014-Oct-19 22:20 130 1 0.2 4.0 Fog.
2014-Oct-19 21:50 090 2 0.1 4.0 Fog.
2014-Oct-19 21:20 080 1 0.2 5.0 Fog.
2014-Oct-19 20:50 090 2 0.1 4.0 Fog.
2014-Oct-19 20:20 160 2 0.1 4.0 Fog.
2014-Oct-19 19:50 150 2 0.1 4.0 Fog.
2014-Oct-19 19:20 130 2 0.1 4.0 Fog.
2014-Oct-19 18:50 130 3 0.1 4.0 Fog.
2014-Oct-19 18:20 130 3 0.2 4.0 Fog.
2014-Oct-19 17:50 150 3 0.3 4.0 Fog.
2014-Oct-19 17:20 130 4 0.4 4.0 Fog.
2014-Oct-19 16:50 120 6 1.0 4.0 Mist.
2014-Oct-19 16:20 140 6 1.5 4.0 Light rain showers. Mist.
2014-Oct-19 15:50 150 7 1.7 4.0 Light rain showers. Mist.
2014-Oct-19 15:20 150 6 1.8 4.0 Light rain. Mist.
2014-Oct-19 14:50 160 8 2.4 4.0 Mist.
2014-Oct-19 14:20 170 9 1.9 4.0 Mist.
2014-Oct-19 13:50 170 10 1.7 4.0 Mist.
2014-Oct-19 13:20 170 9 2.7 4.0 Light rain showers.
2014-Oct-19 12:50 160 10 5.4 4.0 Light rain.
2014-Oct-19 12:20 160 11 5.4 4.0 Light rain.
2014-Oct-19 11:50 160 9 4.3 4.0 Rain.
2014-Oct-19 11:20 160 12 4.3 4.0 Light rain.
2014-Oct-19 10:50 150 13 5.4 4.0 Light rain.
2014-Oct-19 10:20 150 11 5.4 4.0 Light rain.
2014-Oct-19 09:50 160 10 5.4 4.0 Light rain.
2014-Oct-19 09:20 160 8 5.4 4.0 Rain.
2014-Oct-19 08:50 170 8 5.4 4.0 Light rain.
2014-Oct-19 08:20 160 9 5.4 4.0 Light rain.
2014-Oct-19 07:50 160 10 5.4 4.0 Light rain.
2014-Oct-19 07:20 150 9 4.9 3.0 Light rain.
2014-Oct-19 06:50 150 9 3.8 3.0 Light rain.
2014-Oct-19 06:20 150 7 5.4 2.0 Light rain.
2014-Oct-19 05:50 150 7 4.3 2.0 Light rain showers.
2014-Oct-19 05:20 160 7 5.4 2.0 Light rain showers.
2014-Oct-19 04:50 170 7 5.4 2.0 Light rain.
2014-Oct-19 04:20 170 7 5.4 2.0
2014-Oct-19 03:50 180 7 5.4 1.0
2014-Oct-19 03:20 150 5 5.4-0.0
2014-Oct-19 02:50 160 3 5.4-0.0
2014-Oct-19 02:20 170 5 5.4-0.0
2014-Oct-19 01:50 150 4 -1.0
2014-Oct-19 01:20 180 5 -1.0
2014-Oct-19 00:50 180 5 -1.0
2014-Oct-19 00:20 180 5 -1.0